DateTimeUTC,F1_A11,F1_S11,BsB_S11,BsG_S11,BsR_S11,BbsB_S11,BbsG_S11,BbsR_S11,BaB_A11,BaG_A11,BaR_A11,Tu_S11,T_S11,Uu_S11,U_S11,P_S11,T1_A11
2021-07-31T13:00:00Z,00000200,20000000,,,,,,,-000.02,0000.11,-000.19,20.6,27.0,11.2,07.6,0679.9,31.4
2021-07-31T13:01:00Z,00000200,20000000,,,,,,,-000.04,-000.20,-000.02,20.6,27.0,11.2,07.6,0679.9,31.4
2021-07-31T13:02:00Z,00000200,20000000,,,,,,,-000.09,-000.11,0000.08,20.6,27.0,11.2,07.6,0679.9,31.4
2021-07-31T13:03:00Z,00000200,60000000,,,,,,,0001.34,0001.37,0000.54,20.6,27.0,11.2,07.6,0679.9,31.4
2021-07-31T13:04:00Z,00000200,40000000,0006.10,0004.50,0002.56,0000.20,0000.34,0000.64,0001.87,0001.43,0001.52,20.7,26.9,11.0,07.6,0680.8,31.4
2021-07-31T13:05:00Z,00000200,00000000,0006.16,0004.35,0002.57,0000.58,0000.55,0000.50,0001.63,0001.81,0001.11,20.8,26.9,11.1,07.7,0680.8,31.4
2021-07-31T13:06:00Z,00000200,00000000,0006.14,0004.49,0002.68,0001.03,0000.48,0000.48,0001.95,0001.38,0001.40,20.8,26.9,11.2,07.7,0680.8,31.4
2021-07-31T13:07:00Z,00000200,00000000,0007.38,0004.80,0002.86,0001.23,0000.56,0000.57,0001.60,0001.61,0001.18,20.8,26.9,11.1,07.7,0680.8,31.4
2021-07-31T13:08:00Z,00000200,00000000,0006.09,0004.41,0003.00,0000.26,0000.68,0000.70,0001.99,0001.73,0001.35,20.8,26.9,11.1,07.7,0680.9,31.5
2021-07-31T13:09:00Z,00000200,00000000,0006.14,0004.36,0002.79,0000.98,0000.50,0000.75,0001.90,0001.90,0000.98,20.8,26.9,11.1,07.7,0680.9,31.5
2021-07-31T13:10:00Z,00000200,00000000,0006.62,0004.86,0003.01,0000.49,0000.90,0000.74,0001.50,0001.50,0001.29,20.8,26.9,11.1,07.8,0680.9,31.5
2021-07-31T13:11:00Z,00000200,00000000,0007.21,0004.54,0003.19,0000.72,0000.63,0000.54,0001.86,0001.85,0001.48,20.8,26.9,11.1,07.7,0680.9,31.5
2021-07-31T13:12:00Z,00000200,00000000,0007.23,0005.17,0003.34,0000.51,0000.68,0000.50,0002.27,0001.66,0001.36,20.9,26.9,11.2,07.8,0680.9,31.5
2021-07-31T13:13:00Z,00000200,00000000,0006.39,0004.34,0002.69,0000.80,0000.62,0000.36,0001.72,0001.70,0001.30,20.9,26.9,11.2,07.8,0680.8,31.5
2021-07-31T13:14:00Z,00000200,00000000,0006.57,0004.67,0002.80,0000.97,0000.56,0000.23,0002.00,0001.62,0001.26,20.9,26.9,11.2,07.8,0680.9,31.5
2021-07-31T13:15:00Z,00000200,00000000,0006.70,0004.98,0002.99,0000.54,0000.60,0000.54,0001.71,0001.70,0001.27,20.9,26.9,11.2,07.8,0680.9,31.5
2021-07-31T13:16:00Z,00000200,00000000,0007.03,0004.60,0003.17,0000.65,0000.56,0000.50,0001.67,0002.05,0001.39,20.9,26.9,11.3,07.8,0680.9,31.5
2021-07-31T13:17:00Z,00000200,00000000,0006.80,0004.87,0003.22,0000.97,0000.80,0000.27,0002.03,0001.32,0001.40,20.9,26.9,11.3,07.9,0680.8,31.5
2021-07-31T13:18:00Z,00000200,00000000,0006.60,0005.41,0002.97,0000.53,0000.41,0000.74,0002.12,0001.81,0001.49,20.9,26.9,11.3,07.8,0680.9,31.5
2021-07-31T13:19:00Z,00000200,00000000,0008.43,0005.47,0003.43,0000.68,0000.59,0000.58,0002.10,0002.47,0001.22,20.9,26.9,11.3,07.9,0680.9,31.5
2021-07-31T13:20:00Z,00000200,00000000,0007.20,0005.12,0003.24,0000.49,0000.57,0000.52,0001.74,0001.38,0001.37,20.9,26.9,11.4,07.9,0680.9,31.5
2021-07-31T13:21:00Z,00000200,00000000,0007.41,0005.04,0003.25,0000.36,0000.56,0000.38,0002.04,0001.67,0001.49,20.9,26.9,11.3,07.8,0680.9,31.5
2021-07-31T13:22:00Z,00000200,00000000,0007.02,0005.15,0003.25,0000.61,0001.01,0000.40,0002.32,0002.12,0001.23,20.9,26.9,11.3,07.8,0680.9,31.5
2021-07-31T13:23:00Z,00000200,00000000,0006.56,0005.01,0003.54,0000.87,0001.17,0000.50,0001.56,0001.41,0001.51,20.9,26.9,11.4,07.9,0680.8,31.5
2021-07-31T13:24:00Z,00000200,00000000,0007.30,0005.44,0003.19,0000.81,0000.57,0000.41,0002.19,0002.33,0001.39,20.9,26.9,11.3,07.9,0680.8,31.5
2021-07-31T13:25:00Z,00000200,00000000,0007.22,0005.54,0003.24,0000.32,0000.51,0000.55,0002.14,0001.47,0000.90,20.9,26.9,11.3,07.8,0680.8,31.5
2021-07-31T13:26:00Z,00000200,00000000,0006.93,0004.81,0003.21,0000.33,0000.69,0000.53,0001.76,0001.96,0001.80,20.9,26.9,11.2,07.8,0680.9,31.5
2021-07-31T13:27:00Z,00000200,00000000,0007.31,0005.34,0003.58,0000.95,0000.68,0000.52,0001.91,0001.70,0001.42,20.9,26.9,11.4,07.9,0680.8,31.5
2021-07-31T13:28:00Z,00000200,00000000,0006.85,0005.07,0002.97,0001.20,0000.66,0000.59,0002.02,0001.46,0000.99,20.9,26.9,11.3,07.9,0680.8,31.5
2021-07-31T13:29:00Z,00000200,00000000,0007.31,0006.09,0003.46,0001.53,0000.66,0000.23,0002.03,0002.24,0001.63,20.8,26.9,11.3,07.9,0680.8,31.5
2021-07-31T13:30:00Z,00000200,00000000,0007.10,0005.10,0003.43,0000.67,0000.77,0000.70,0001.90,0001.85,0001.63,20.8,26.9,11.2,07.8,0680.8,31.5
2021-07-31T13:31:00Z,00000200,00000000,0006.67,0005.93,0003.13,0000.85,0000.59,0000.29,0002.27,0001.68,0000.89,20.8,26.9,11.3,07.9,0680.8,31.5
2021-07-31T13:32:00Z,00000200,00000000,0008.21,0005.54,0003.85,0001.12,0000.61,0000.71,0002.16,0002.16,0002.11,20.8,26.9,11.4,07.9,0680.8,31.5
2021-07-31T13:33:00Z,00000200,00000000,0007.46,0004.98,0003.45,0000.82,0001.00,0000.74,0002.25,0001.90,0001.52,20.9,26.9,11.3,07.9,0680.8,31.5
2021-07-31T13:34:00Z,00000200,00000000,0007.12,0005.24,0002.98,0000.16,0000.84,0000.33,0002.00,0001.58,0001.27,20.9,26.9,11.3,07.9,0680.8,31.5
2021-07-31T13:35:00Z,00000200,00000000,0008.34,0005.90,0003.61,0000.78,0000.58,0000.85,0002.33,0002.24,0001.55,20.9,26.9,11.4,07.9,0680.8,31.5
2021-07-31T13:36:00Z,00000200,00000000,0007.14,0005.53,0003.13,0000.68,0000.71,0000.79,0001.99,0001.84,0001.06,20.9,26.9,11.4,07.9,0680.8,31.5
2021-07-31T13:37:00Z,00000200,00000000,0008.48,0005.48,0003.74,0001.02,0000.63,0000.54,0002.25,0002.13,0001.80,20.9,26.9,11.5,08.0,0680.8,31.5
2021-07-31T13:38:00Z,00000200,00000000,0008.97,0006.03,0003.86,0000.86,0000.49,0000.68,0002.29,0002.17,0001.65,20.9,26.9,11.5,08.0,0680.8,31.5
2021-07-31T13:39:00Z,00000200,00000000,0008.66,0006.33,0004.42,0001.23,0000.76,0000.92,0002.26,0002.13,0001.51,20.9,26.9,11.4,08.0,0680.9,31.5
2021-07-31T13:40:00Z,00000200,00000000,0008.61,0005.81,0004.11,0001.30,0000.77,0000.75,0002.44,0001.87,0001.60,21.0,26.9,11.3,07.9,0680.9,31.5
2021-07-31T13:41:00Z,00000200,00000000,0008.70,0006.02,0003.66,0000.86,0000.50,0000.34,0002.36,0002.15,0001.61,21.0,26.9,11.3,07.9,0680.9,31.5
2021-07-31T13:42:00Z,00000200,00000000,0008.73,0006.62,0004.37,0001.53,0000.82,0000.66,0002.47,0002.45,0001.83,21.0,26.9,11.3,07.9,0680.9,31.5
2021-07-31T13:43:00Z,00000200,00000000,0008.85,0006.90,0003.90,0001.56,0000.90,0000.56,0002.23,0002.15,0001.34,21.0,26.9,11.3,07.9,0680.9,31.5
2021-07-31T13:44:00Z,00000200,00000000,0009.81,0006.82,0004.10,0001.22,0000.73,0000.38,0002.31,0002.31,0001.84,21.0,26.9,11.3,07.9,0680.9,31.4
2021-07-31T13:45:00Z,00000200,00000000,0010.37,0007.36,0004.14,0000.80,0000.89,0000.72,0002.73,0001.99,0002.06,21.0,26.9,11.3,07.9,0680.8,31.4
2021-07-31T13:46:00Z,00000200,00000000,0009.15,0006.59,0003.82,0000.60,0000.98,0000.38,0002.51,0002.34,0001.72,21.0,26.9,11.3,07.9,0680.8,31.4
2021-07-31T13:47:00Z,00000200,00000000,0008.36,0006.37,0003.91,0001.02,0000.50,0000.65,0002.32,0002.20,0001.55,21.0,26.9,11.3,07.9,0680.8,31.4
2021-07-31T13:48:00Z,00000200,00000000,0009.54,0006.79,0004.21,0001.38,0000.56,0000.73,0002.63,0002.71,0001.76,21.0,26.9,11.5,08.0,0680.8,31.4
2021-07-31T13:49:00Z,00000200,00000000,0010.66,0007.04,0004.57,0001.04,0000.62,0000.78,0002.55,0002.11,0001.95,21.0,27.0,11.5,08.0,0680.8,31.4
2021-07-31T13:50:00Z,00000200,00000000,0009.29,0007.42,0004.20,0001.30,0001.15,0000.90,0002.92,0002.75,0001.89,21.0,26.9,11.4,08.0,0680.8,31.4
2021-07-31T13:51:00Z,00000200,00000000,0010.44,0007.68,0004.93,0000.96,0000.98,0000.59,0002.79,0002.64,0001.84,21.0,26.9,11.5,08.0,0680.8,31.4
2021-07-31T13:52:00Z,00000200,00000000,0010.26,0007.69,0004.50,0000.69,0000.63,0000.60,0002.84,0002.50,0002.09,21.0,27.0,11.5,08.0,0680.8,31.4
2021-07-31T13:53:00Z,00000200,00000000,0010.19,0007.17,0004.56,0001.63,0000.88,0000.84,0002.94,0002.84,0001.98,21.0,27.0,11.5,08.1,0680.7,31.4
2021-07-31T13:54:00Z,00000200,00000000,0010.31,0007.96,0004.86,0001.68,0001.20,0001.02,0003.14,0002.36,0002.00,21.0,27.0,11.6,08.1,0680.7,31.4
2021-07-31T13:55:00Z,00000200,00000000,0010.40,0007.83,0004.81,0001.63,0000.80,0001.14,0002.89,0002.57,0001.84,21.0,27.0,11.5,08.0,0680.7,31.4
2021-07-31T13:56:00Z,00000200,00000000,0010.71,0008.17,0005.04,0001.28,0001.14,0000.80,0002.74,0002.75,0002.10,21.0,27.0,11.5,08.0,0680.7,31.4
2021-07-31T13:57:00Z,00000200,40000000,,,,,,,0001.00,0000.79,0000.84,21.0,27.0,11.3,07.9,0680.6,31.4
2021-07-31T13:58:00Z,00000200,60000000,,,,,,,-000.46,0000.02,-000.16,20.8,27.1,11.5,07.8,0679.8,31.4
2021-07-31T13:59:00Z,00000200,20000000,,,,,,,0000.39,-000.17,-000.07,20.8,27.2,11.5,07.8,0679.7,31.4
